Weather in Morzhegory

Russia / Arkhangel'skaya Oblast'     63°03′05″N   42°08′57″E
temp.,
°C
wind,
m/s
gust,
m/s
humid.,
%
clouds,
%
prec.,
mm/h
press.,
hPa
HPBL,
m
28 july, wed
wed2800:00+8nw23845 0.0 101861
03:00+6wnw22951 0.0 101815
06:00+10w127336 0.0 1017140
09:00+17wsw344695 0.0 1015684
12:00+21wsw462949 0.0 10121591
15:00+23w583184 0.0 10092311
18:00+19sw234929 0.0 100746
21:00+14nnw11754 0.1 100610
29 july, thu
thu2900:00+11ne24934 0.0 100669
03:00+9ne259818 0.0 1006118
06:00+11ene23871 0.0 1006234
09:00+17ene22610 0.0 1005772
12:00+22ene11450 0.0 10031120
15:00+23nnw0144100 0.0 10011486
18:00+19nne2462100 0.0 1000122
21:00+14n1189100 0.7 99916
30 july, fri
fri3000:00+13ne1194100 0.6 99927
03:00+13ne1294100 0.9 99937
06:00+12ese1294100 0.3 99975
09:00+13ese259797 0.4 999226
12:00+16sse359599 1.1 999454
15:00+20ssw3480100 1.4 998735
18:00+19s1391100 2.8 998185
21:00+16sw2495100 5.9 99785
31 july, sat
sat3100:00+14wsw2296100 0.5 99741
03:00+14w3798100 1.6 997220
06:00+14sw2895100 0.3 997325
09:00+18wsw367417 0.3 996592
12:00+22w3546100 0.0 9961638
15:00+23w354399 0.0 9962142
18:00+19sw246497 0.0 996120
21:00+15w228214 0.0 99726
1 august, sun
sun100:00+14w23845 0.0 99867
03:00+12wsw24975 0.0 100080
06:00+14wsw24821 0.0 1000166
09:00+20sw23600 0.0 1001769
12:00+22ssw3449100 0.0 10001837
15:00+23sse1347100 0.0 10001192
18:00+19s2266100 0.0 100041
21:00+16sw2489100 0.9 100062